Mount Holly, NJ

8:59 AM EST on December 15, 2019 (GMT -0500)
South Jersey Regional

Weather History for KVAY - September, 2019

Change the Weather History Date:

Wednesday, September 25, 2019

  Actual Average (KPNE) Record (KPNE)
Temperature  
Mean Temperature 65 °F -  
Max Temperature 80 °F 71 °F 91 °F (2017)
Min Temperature 51 °F 52 °F 37 °F (1997)
Growing Degree Days 15 (Base 50)    
Moisture  
Dew Point 52 °F    
Average Humidity 69    
Maximum Humidity 97    
Minimum Humidity 34    
Precipitation  
Precipitation 0.00 in - - ()
Sea Level Pressure  
Sea Level Pressure 29.89 in    
Wind  
Wind Speed 2 mph (West)    
Max Wind Speed 8 mph    
Max Gust Speed -    
Visibility 10 miles    
Events      
Averages and records for this station are not official NWS values.
T = Trace of Precipitation, MM = Missing Value Source: NWS Daily Summary

Daily Weather History Graph

Daily Weather History Graph

Search for Another Location

Airport or City:

Astronomy

Sep. 25, 2019 Rise Set
Actual Time 6:49 AM EDT 6:51 PM EDT
Civil Twilight 6:22 AM EDT 7:18 PM EDT
Nautical Twilight 5:51 AM EDT 7:50 PM EDT
Astronomical Twilight 5:19 AM EDT 8:22 PM EDT
Moon 2:40 AM EDT (9/25) 5:21 PM EDT (9/25)
Length of Visible Light 12h 56m
Length of Day
12h 02m
Waning Crescent, 14% of the Moon is Illuminated
Sep 25
Waning Crescent
Sep 28
New
Oct 5
First Quarter
Oct 13
Full
Oct 21
Last Quarter

Hourly Weather History & Observations

Time (EDT) Temp. Dew Point Humidity Pressure Visibility Wind Dir Wind Speed Gust Speed Precip Events Conditions
12:54 AM 55.9 °F 53.1 °F 90% 29.89 in 10.0 mi Calm Calm - N/A   Clear
1:54 AM 55.0 °F 52.0 °F 89% 29.89 in 10.0 mi Calm Calm - N/A   Clear
2:54 AM 54.0 °F 52.0 °F 93% 29.88 in 10.0 mi Calm Calm - N/A   Unknown
3:54 AM 53.1 °F 51.1 °F 93% 29.88 in 10.0 mi Calm Calm - N/A   Clear
4:54 AM 53.1 °F 51.1 °F 93% 29.91 in 10.0 mi Calm Calm - N/A   Partly Cloudy
5:54 AM 52.0 °F 50.0 °F 93% 29.92 in 10.0 mi Calm Calm - N/A   Clear
6:54 AM 51.1 °F 50.0 °F 96% 29.93 in 10.0 mi Calm Calm - N/A   Clear
7:54 AM 54.0 °F 53.1 °F 97% 29.94 in 10.0 mi Calm Calm - N/A   Clear
8:54 AM 63.0 °F 57.0 °F 81% 29.94 in 10.0 mi Calm Calm - N/A   Clear
9:54 AM 69.1 °F 54.0 °F 58% 29.94 in 10.0 mi WSW 5.8 mph - N/A   Unknown
10:54 AM 72.0 °F 51.1 °F 48% 29.94 in 10.0 mi Variable 3.5 mph - N/A   Clear
11:54 AM 75.0 °F 51.1 °F 43% 29.93 in 10.0 mi WSW 6.9 mph - N/A   Clear
12:54 PM 75.9 °F 50.0 °F 40% 29.90 in 10.0 mi NW 5.8 mph - N/A   Partly Cloudy
1:54 PM 77.0 °F 48.9 °F 37% 29.87 in 10.0 mi Variable 4.6 mph - N/A   Clear
2:54 PM 79.0 °F 50.0 °F 36% 29.85 in 10.0 mi WNW 8.1 mph - N/A   Clear
3:54 PM 79.0 °F 48.9 °F 35% 29.84 in 10.0 mi Variable 5.8 mph - N/A   Clear
4:54 PM 79.0 °F 48.0 °F 34% 29.83 in 10.0 mi West 8.1 mph - N/A   Clear
5:54 PM 78.1 °F 48.9 °F 36% 29.84 in 10.0 mi WSW 4.6 mph - N/A   Clear
6:54 PM 68.0 °F 55.0 °F 63% 29.85 in 10.0 mi Calm Calm - N/A   Clear
7:54 PM 62.1 °F 55.0 °F 78% 29.86 in 10.0 mi Calm Calm - N/A   Clear
8:54 PM 61.0 °F 54.0 °F 78% 29.87 in 10.0 mi Calm Calm - N/A   Clear
9:54 PM 62.1 °F 54.0 °F 75% 29.88 in 10.0 mi Calm Calm - N/A   Clear
10:54 PM 61.0 °F 54.0 °F 78% 29.88 in 10.0 mi Calm Calm - N/A   Clear
11:54 PM 57.9 °F 53.1 °F 84% 29.88 in 10.0 mi Calm Calm - N/A   Clear